User: anonymous   Login
Location: St. Louis
(38.6270°N, 90.1994°W)
Time: 20:38:57
(UTC-05:00)
Language:

FO-29 - Orbit

View from above orbital plane
View from above orbital plane
View from above satellite
View from above satellite

Ground track
Ground track

The orbit data is extracted from the following two-line orbital elements,

1 24278U 96046B   22229.43673385 -.00000025  00000-0  76080-5 0  9998
2 24278  98.5154 244.7371 0351233 124.9756 238.4897 13.53118886284106
Epoch (UTC): 17 August 2022 10:28:53
Eccentricity: 0.0351233
inclination: 98.5154°
perigee height: 799 km
apogee height: 1322 km
right ascension of ascending node: 244.7371°
argument of perigee: 124.9756°
revolutions per day: 13.53118886
mean anomaly at epoch: 238.4897°
orbit number at epoch: 28410

The dashed part of the orbit path shows where the satellite is in the earth's shadow,  

DLR